This is the latest recevied weather packets stored in our database for station/object K8BCO. If no packets are shown the sender has not sent any weather packets the latest 10 day(s).
| Time | Temp. | Humidity | Pressure | Rain* | Wind** | Luminosity | Snow |
|---|---|---|---|---|---|---|---|
| 1777418717 | 7.78° C | 67% | 1012.6 hPa | 0 mm | - | 35 W/m² | - |
| 1777418117 | 7.78° C | 67% | 1012.6 hPa | 0 mm | - | 40 W/m² | - |
| 1777417517 | 7.78° C | 66% | 1012.5 hPa | 0 mm | - | 42 W/m² | - |
| 1777416918 | 7.78° C | 66% | 1012.3 hPa | 0 mm | - | 66 W/m² | - |
| 1777416317 | 7.78° C | 66% | 1012.1 hPa | 0 mm | - | 77 W/m² | - |
| 1777415718 | 7.78° C | 66% | 1011.8 hPa | 0 mm | - | 76 W/m² | - |
| 1777415118 | 7.78° C | 66% | 1011.7 hPa | 0 mm | - | 67 W/m² | - |
| 1777414518 | 7.78° C | 66% | 1011.5 hPa | 0 mm | - | 100 W/m² | - |
| 1777413918 | 7.78° C | 66% | 1011.4 hPa | 0 mm | - | 77 W/m² | - |
| 1777413318 | 7.78° C | 66% | 1011.2 hPa | 0 mm | - | 83 W/m² | - |
| 1777412718 | 7.78° C | 66% | 1011.1 hPa | 0 mm | - | 78 W/m² | - |
| 1777412116 | 7.78° C | 67% | 1010.8 hPa | 0 mm | - | 87 W/m² | - |
| 1777411516 | 7.78° C | 66% | 1010.6 hPa | 0 mm | - | 102 W/m² | - |
| 1777410916 | 7.78° C | 66% | 1010.4 hPa | 0 mm | - | 121 W/m² | - |
| 1777410318 | 8.33° C | 67% | 1010.1 hPa | 0 mm | - | 142 W/m² | - |
| 1777409717 | 8.33° C | 66% | 1009.6 hPa | 0 mm | - | 173 W/m² | - |
| 1777409116 | 8.33° C | 67% | 1009.4 hPa | 0 mm | - | 196 W/m² | - |
| 1777408520 | 8.33° C | 67% | 1009.3 hPa | 0 mm | - | 185 W/m² | - |
| 1777407917 | 8.33° C | 67% | 1009.1 hPa | 0 mm | - | 181 W/m² | - |
| 1777407317 | 8.33° C | 67% | 1009 hPa | 0 mm | - | 193 W/m² | - |
| 1777406720 | 8.33° C | 67% | 1008.7 hPa | 0 mm | - | 196 W/m² | - |
| 1777406117 | 8.33° C | 67% | 1008.3 hPa | 0 mm | - | 208 W/m² | - |
| 1777405527 | 8.33° C | 68% | 1008.2 hPa | 0 mm | - | 202 W/m² | - |
| 1777404917 | 8.33° C | 68% | 1008 hPa | 0 mm | - | 196 W/m² | - |
| 1777404318 | 8.33° C | 68% | 1007.8 hPa | 0 mm | - | 235 W/m² | - |
* Rain latest hour (hover to see other rain measurements)
** Current wind speed in m/s (hover to see current wind gust speed)